Home   Weather   Edinburgh   Past weeks
Flag for United Kingdom

Past Weather in Edinburgh, Scotland, United Kingdom — Yesterday and Last 2 Weeks

Now
59 °F

Sunny.


Feels Like: 59 °F
Forecast: 71 / 55 °F
Wind: 5 mph from Northeast

Location: Edinburgh Airport

Current Time: Jul 15, 2019 at 10:09:53 pm

Latest Report: Jul 15, 2019 at 9:20 pm


Visibility: 10 mi

Pressure: 30.09 "Hg

Humidity: 94%

Dew Point: 57 °F

Location of EdinburghLocation

Past Weather in Edinburgh — Graph

°F

Edinburgh Temperature Yesterday

Maximum temperature yesterday: 68 °F (at 4:20 pm)
Minimum temperature yesterday: 55 °F (at 4:20 am)
Average temperature yesterday: 61 °F

High & Low Weather Summary for the Past Weeks

 TemperatureHumidityPressure
High73 °F (Jul 12, 2:50 pm)100% (Jul 3, 5:20 am)30.39 "Hg (Jul 3, 5:20 am)
Low41 °F (Jul 8, 4:20 am)49% (Jul 2, 1:50 pm)29.74 "Hg (Jul 11, 1:50 pm)
Average59 °F83%30.07 "Hg
* Reported Jun 30 8:20 pm — Jul 15 8:50 pm, Edinburgh. Weather by CustomWeather, © 2019

Note: Actual official high and low records may vary slightly from our data, if they occured in-between our weather recording intervals... More about our weather records

Advertising

Edinburgh Weather History for the Previous 24 Hours

Scroll right to see more
 ConditionsComfort  
Time TempWeatherWind HumidityBarometerVisibility
8:50 pm
Mon, Jul 15
63 °FSunny.3 mph83%30.09 "Hg10 mi
8:20 pm63 °FPassing clouds.5 mph83%30.09 "HgN/A
7:50 pm63 °FPassing clouds.7 mph83%30.09 "HgN/A
7:20 pm63 °FPassing clouds.9 mph77%30.09 "HgN/A
6:50 pm64 °FSunny.8 mph78%30.09 "Hg10 mi
6:20 pm64 °FSunny.8 mph78%30.09 "Hg10 mi
5:50 pm66 °FSunny.9 mph73%30.09 "Hg10 mi
5:20 pm66 °FSunny.8 mph73%30.12 "Hg10 mi
4:50 pm68 °FSunny.7 mph73%30.12 "Hg10 mi
4:20 pm68 °FSunny.7 mph73%30.12 "Hg10 mi
3:50 pm68 °FSunny.8 mph73%30.12 "Hg10 mi
3:20 pm68 °FSunny.8 mph73%30.12 "Hg10 mi
2:50 pm68 °FSunny.7 mph69%30.15 "Hg10 mi
2:20 pm66 °FPassing clouds.8 mph73%30.15 "HgN/A
1:50 pm66 °FPassing clouds.8 mph73%30.15 "HgN/A
1:20 pm66 °FPassing clouds.7 mph73%30.15 "HgN/A
12:50 pm66 °FPassing clouds.6 mph73%30.15 "HgN/A
12:20 pm66 °FPassing clouds.7 mph73%30.15 "HgN/A
11:50 am64 °FPassing clouds.6 mph78%30.18 "HgN/A
11:20 am64 °FPassing clouds.6 mph78%30.18 "HgN/A
10:50 am63 °FPassing clouds.3 mph83%30.18 "HgN/A
10:20 am63 °FScattered clouds.2 mph83%30.18 "HgN/A
9:50 am59 °FPartly sunny.1 mph88%30.21 "HgN/A
9:20 am59 °FPartly sunny.3 mph88%30.21 "HgN/A
8:50 am59 °FPartly sunny.3 mph88%30.21 "HgN/A
8:20 am57 °FPartly sunny.3 mph94%30.21 "HgN/A
7:50 am57 °FPartly sunny.5 mph94%30.21 "HgN/A
7:20 am55 °FPartly sunny.5 mph100%30.21 "HgN/A
6:50 am55 °FPartly sunny.1 mph100%30.21 "HgN/A
6:20 am52 °FPartly sunny.1 mph100%30.21 "HgN/A
5:50 am52 °FScattered clouds.1 mph100%30.21 "HgN/A
5:20 am52 °FBroken clouds.1 mph100%30.21 "HgN/A
4:50 am50 °FFog.No wind100%30.21 "HgN/A
4:20 am52 °FFog.2 mph100%30.21 "HgN/A
3:50 am50 °FFog.1 mph100%30.21 "HgN/A
3:20 am50 °FFog.2 mph100%30.21 "Hg1 mi
2:50 am50 °FPassing clouds.1 mph100%30.24 "HgN/A
2:20 am54 °FPassing clouds.2 mph100%30.24 "HgN/A
1:50 am55 °FPassing clouds.2 mph94%30.24 "HgN/A
1:20 am55 °FPassing clouds.3 mph94%30.24 "HgN/A
12:50 am55 °FPassing clouds.5 mph100%30.24 "HgN/A
12:20 am55 °FPassing clouds.5 mph94%30.24 "HgN/A
11:50 pm
Sun, Jul 14
55 °FClear.5 mph94%30.24 "Hg10 mi
11:20 pm55 °FClear.7 mph94%30.24 "Hg10 mi
10:50 pm55 °FClear.6 mph94%30.24 "Hg10 mi
10:20 pm55 °FPassing clouds.7 mph94%30.24 "HgN/A
Weather by CustomWeather, © 2019

See weather overview

LIVE PARTIAL LUNAR ECLIPSE – Watch the eclipse as it happens